Regional Weather Roundup
Issued by NWS

Home | Current Version | Previous Version | Graphics & Text | Print | Product List | Glossary On
Versions: 1 2 3 4 5 6 7 8 9 10 11 12 13 14 15 16 17 18 19 20 21 22 23 24 25 26 27 28 29 30 31 32 33 34 35 36 37 38 39 40 41 42 43 44 45 46 47 48 49 50
634
ASUS43 KMKX 210010
RWRWI

WISCONSIN REGIONAL WEATHER ROUNDUP
NATIONAL WEATHER SERVICE MILWAUKEE/SULLIVAN WI
600 PM CST FRI JAN 20 2017

NOTE: "FAIR" INDICATES FEW OR NO CLOUDS BELOW 12,000 FEET WITH NO
SIGNIFICANT WEATHER AND/OR OBSTRUCTIONS TO VISIBILITY.

WIZ001-002-006>008-014>016-023>028-210100-
NORTHWEST WISCONSIN

CITY           SKY/WX    TMP DP  RH WIND       PRES   REMARKS
SUPERIOR ARPT  DRIZZLE   34  34 100 E8        29.61S WCI  27
6HR MIN TEMP:  34; 6HR MAX TEMP:  35; 6HR PCP:  0.08;

ASHLAND        LGT RAIN  33  33 100 CALM      29.63R VSB 1
6HR MIN TEMP:  33; 6HR MAX TEMP:  36; 6HR PCP:  0.21;

HAYWARD        CLOUDY    37  34  89 S5        29.60R WCI  33
6HR MIN TEMP:  37; 6HR MAX TEMP:  38; 6HR PCP:  0.14;

SIREN          CLOUDY    35  35  98 SE5       29.59S WCI  31
6HR MIN TEMP:  35; 6HR MAX TEMP:  37;

CUMBERLAND     CLOUDY    34  32  93 SE6       29.59R FOG     WCI  29
RICE LAKE      CLOUDY    35  34  98 SE7       29.62R FOG     WCI  29
6HR MIN TEMP:  35; 6HR MAX TEMP:  36;

CHETEK         RAIN      35  35 100 SE3       29.60S
6HR MIN TEMP:  35; 6HR MAX TEMP:  36;

LADYSMITH      CLOUDY    36  36  97 SE5       29.63R FOG     WCI  32
6HR MIN TEMP:  36; 6HR MAX TEMP:  38; 6HR PCP:  0.05;

EAU CLAIRE     CLOUDY    35  35 100 SE7       29.60S WCI  29
6HR MIN TEMP:  35; 6HR MAX TEMP:  36;

MENOMONIE        N/A    N/A N/A N/A MISG        N/A
NEW RICHMOND   FOG       34  34 100 SE5       29.59S VSB 1   WCI  30
6HR MIN TEMP:  34; 6HR MAX TEMP:  36;

OSCEOLA        CLOUDY    35  35 100 SE7       29.61S WCI  29
6HR MIN TEMP:  35; 6HR MAX TEMP:  37;

$$

WIZ003>005-009-010-017-018-210100-
NORTH CENTRAL WISCONSIN

CITY           SKY/WX    TMP DP  RH WIND       PRES   REMARKS
MANITOWISH WTR FLURRIES  33  33 100 CALM      29.61S
6HR MIN TEMP:  33; 6HR MAX TEMP:  36; 6HR PCP:  0.13;

ARBOR VITAE    FLURRIES  37  36  96 SE3       29.61S
6HR MIN TEMP:  37; 6HR MAX TEMP:  38; 6HR PCP:  0.13;

WOODRUFF       FLURRIES  37  36  96 SE3       29.61S
6HR MIN TEMP:  37; 6HR MAX TEMP:  38; 6HR PCP:  0.13;

RHINELANDER    LGT RAIN  34  34 100 SE7       29.62R WCI  28
6HR MIN TEMP:  34; 6HR MAX TEMP:  36; 6HR PCP:  0.21;

EAGLE RIVER    LGT RAIN  34  34 100 CALM      29.62R
6HR MIN TEMP:  33; 6HR MAX TEMP:  38;

LAND O LAKES   MIX PCPN  35  35 100 CALM      29.63R
6HR MIN TEMP:  35; 6HR MAX TEMP:  39; 6HR PCP:  0.09;

PHILLIPS       CLOUDY    34  34 100 SE5       29.61R WCI  30
6HR MIN TEMP:  34; 6HR MAX TEMP:  37; 6HR PCP:  0.10;

TOMAHAWK       CLOUDY    33  32  96 CALM      29.63R FOG
6HR MIN TEMP:  32; 6HR MAX TEMP:  36;

MEDFORD        CLOUDY    33  33  99 SE5       29.61S FOG     WCI  29
6HR MIN TEMP:  33; 6HR MAX TEMP:  35; 6HR PCP:  0.02;

MERRILL        CLOUDY    34  34 100 CALM        N/A  FOG
6HR MIN TEMP:  33; 6HR MAX TEMP:  37; 6HR PCP:  0.12;

$$

WIZ029-030-035-036-043>047-210100-
CENTRAL WISCONSIN

CITY           SKY/WX    TMP DP  RH WIND       PRES   REMARKS
WAUSAU         CLOUDY    33  33 100 SE6       29.63R FOG     WCI  28
6HR MIN TEMP:  33; 6HR MAX TEMP:  35; 6HR PCP:  0.03;

MOSINEE        CLOUDY    34  34 100 SE5       29.64S FOG     WCI  30
MARSHFIELD     CLOUDY    34  32  92 SE8       29.61S FOG     WCI  27
6HR MIN TEMP:  34; 6HR MAX TEMP:  35; 6HR PCP: TRACE;

STEVENS POINT  CLOUDY    32  32 100 SE5       29.65R FOG     WCI  27
6HR MIN TEMP:  32; 6HR MAX TEMP:  33;

WAUPACA        CLOUDY    37  34  90 CALM      29.67R FOG
6HR MIN TEMP:  37; 6HR MAX TEMP:  38;

WAUTOMA        MIX PCPN  35  34  96 E3        29.66S FOG
6HR MIN TEMP:  35; 6HR MAX TEMP:  36; 6HR PCP: TRACE;

WISC RAPIDS    CLOUDY    35  35 100 E6        29.64S FOG     WCI  30
6HR MIN TEMP:  35; 6HR MAX TEMP:  36; 6HR PCP: TRACE;

CAMP DOUGLAS   CLOUDY    34  34 100 E7        29.61F FOG     WCI  28
6HR MIN TEMP:  35; 6HR MAX TEMP:  36;

$$

WIZ011>013-019>022-031-037>040-048>050-210100-
NORTHEAST WISCONSIN

CITY           SKY/WX    TMP DP  RH WIND       PRES   REMARKS
ANTIGO         CLOUDY    32  32 100 SE5       29.63R WCI  27
6HR MIN TEMP:  32; 6HR MAX TEMP:  34; 6HR PCP:  0.04;

SHAWANO        CLOUDY    35  34  94 CALM      29.67R
6HR MIN TEMP:  35; 6HR MAX TEMP:  36; 6HR PCP:  0.04;

OCONTO         CLOUDY    32  32  99 E3        29.68R
6HR MIN TEMP:  32; 6HR MAX TEMP:  35; 6HR PCP:  0.05;

STURGEON BAY   CLOUDY    34  33  96 SE3       29.68R
6HR MIN TEMP:  33; 6HR MAX TEMP:  36; 6HR PCP:  0.06;

GREEN BAY      CLOUDY    35  35 100 CALM      29.67R FOG
6HR MIN TEMP:  35; 6HR MAX TEMP:  36; 6HR PCP:  0.04;

MANITOWOC      CLOUDY    36  35  96 CALM      29.69R FOG
6HR MIN TEMP:  36; 6HR MAX TEMP:  38; 6HR PCP: TRACE;

APPLETON         N/A     34  34 100 CALM      29.66R FOG
CLINTONVILLE   CLOUDY    34  34 100 CALM      29.67R FOG
OSHKOSH        CLOUDY    35  33  92 CALM      29.66R FOG
6HR MIN TEMP:  34; 6HR MAX TEMP:  36; 6HR PCP: TRACE;

$$

WIZ032>034-041-042-053>061-210100-
SOUTHWEST WISCONSIN

CITY           SKY/WX    TMP DP  RH WIND       PRES   REMARKS
LA CROSSE      CLOUDY    40  37  89 VRB3      29.60F FOG
6HR MIN TEMP:  40; 6HR MAX TEMP:  41;

SPARTA         CLOUDY    34  34 100 NE3       29.62S
6HR MIN TEMP:  34; 6HR MAX TEMP:  36;

VIROQUA        CLOUDY    34  34 100 E8        29.59S VSB 1/4 WCI  27
6HR MIN TEMP:  34; 6HR MAX TEMP:  36;

BOSCOBEL       CLOUDY    38  37  97 CALM      29.61S FOG
6HR MIN TEMP:  37; 6HR MAX TEMP:  40;

PRAIRIE DU CHI CLOUDY    37  36  96 E5        29.60R FOG     WCI  33
6HR MIN TEMP:  37; 6HR MAX TEMP:  38;

PLATTEVILLE    CLOUDY    36  36 100 E7        29.60S VSB 1/4 WCI  30
6HR MIN TEMP:  36; 6HR MAX TEMP:  38;

$$

WIZ056-057-062-063-064-067-068-210100-
SOUTH CENTRAL WISCONSIN

CITY           SKY/WX    TMP DP  RH WIND       PRES   REMARKS
REEDSBURG      CLOUDY    35  35 100 E3        29.62R FOG
6HR MIN TEMP:  35; 6HR MAX TEMP:  36;

BARABOO/DELLS  FOG       35  35  99 E6        29.62S VSB 1/2 WCI  30
6HR MIN TEMP:  35; 6HR MAX TEMP:  36;

LONE ROCK      CLOUDY    36  35  96 E5        29.62F FOG     WCI  32
6HR MIN TEMP:  36; 6HR MAX TEMP:  38;

MINERAL POINT  SNOW      37  37 100 E5        29.60S VSB 1/4 WCI  34
MADISON        DRZL/FOG  36  36 100 E6        29.64S VSB 1   WCI  31
6HR MIN TEMP:  36; 6HR MAX TEMP:  37; 6HR PCP:  0.01;

MIDDLETON      CLOUDY    38  38 100 E6        29.63S VSB 1   WCI  33
6HR MIN TEMP:  37; 6HR MAX TEMP:  38;

WATERTOWN      CLOUDY    36  36 100 E5        29.64F FOG     WCI  32
6HR MIN TEMP:  36; 6HR MAX TEMP:  37;

MONROE         SNOW      36  36 100 E5        29.61S VSB 1/4 WCI  32
JANESVILLE     FOG       37  37 100 E10       29.63S VSB 1/2 WCI  30
$$

WIZ051-052-058>065-066-070>072-210100-
SOUTHEAST WISCONSIN

CITY           SKY/WX    TMP DP  RH WIND       PRES   REMARKS
MILWAUKEE      FOG       38  36  92 SE5       29.68R VSB 1/4 WCI  34
6HR MIN TEMP:  37; 6HR MAX TEMP:  39;

WAUKESHA       FOG       36  36 100 E7        29.66S VSB 3/4 WCI  30
MILWAUKEE/TIMM CLOUDY    36  34  93 SE5       29.68R FOG     WCI  32
RACINE         FOG       37  35  92 E3        29.68R VSB 1/2
6HR MIN TEMP:  37; 6HR MAX TEMP:  39;

KENOSHA        FOG       37  36  96 E5        29.66S VSB 1/4 WCI  33
6HR MIN TEMP:  37; 6HR MAX TEMP:  38;

FOND DU LAC    CLOUDY    36  33  89 SE6       29.66S WCI  31
6HR MIN TEMP:  36; 6HR MAX TEMP:  39; 6HR PCP: TRACE;

SHEBOYGAN      FOG       34  32  92 CALM      29.68R VSB 1/4
6HR MIN TEMP:  34; 6HR MAX TEMP:  38; 6HR PCP: TRACE;

WEST BEND      FOG       34  34 100 CALM      29.67R VSB 1/2
JUNEAU         FOG       35  34  98 E6        29.66S VSB 1/4 WCI  30
6HR MIN TEMP:  35; 6HR MAX TEMP:  37;

$$

LSZ147-162-210100-
LAKE SUPERIOR

STATION/POSITION TIME  TEMP    WIND        PRES    WAVE
                       AIR SEA DIR/SP/G            HT/PER
                 (UTC) (F)     (DEG/KT/KT) (MB)    (FT/S)
DEVILS ISLAND    0000   34      70/  6/  7 1004.3R
PORT WING        2340   34      50/  2/  2 1003.4R
SAXON HARBOR     2340   34      CALM  /  1 1003.4R
$$

LMZ867-665-643>646-210100-
LAKE MICHIGAN

STATION/POSITION TIME  TEMP    WIND        PRES    WAVE
                       AIR SEA DIR/SP/G            HT/PER
                 (UTC) (F)     (DEG/KT/KT) (MB)    (FT/S)
NORTHPORT PIER   2340   33      30/  2/  5 1005.1S
SISTER BAY       2350   33      40/  4/  7   N/A
KEWAUNEE LAKE



USA.gov is the U.S. government's official web portal to all federal, state and local government web resources and services.